DW5260 Weather Reports


time (UTC)temp
F
wind
direction
speed
knots
gust
knots
rain 1hr
in
rain 24hr
in
rain mn
in
humidity
%
barometer
mb
20260507140027 81 194 0.0 0.0 0.00 0.00 0.00 70 1016.4
20260507134532 81 186 0.0 0.0 0.00 0.00 0.00 69 1016.5
20260507133028 80 196 0.0 0.9 0.00 0.00 0.00 73 1016.4
20260507131512 79 211 0.0 0.0 0.00 0.00 0.00 76 1016.3
20260507130021 78 233 0.0 1.7 0.00 0.00 0.00 76 1016.4
20260507124551 0 0.0 0.0 0.00 0.00 0.00 1016.5
20260507123138 0 0.0 0.0 0.00 0.00 0.00 1016.7
20260507121512 0 0.0 0.0 0.00 0.00 0.00 1016.5
20260507114610 0 0.0 0.0 0.00 0.00 0.00 1016.4
20260507113038 0 0.0 0.0 0.00 0.00 0.00 1016.4
20260507111516 0 0.0 0.0 0.00 0.00 0.00 1016.1
20260507104540 0 0.0 0.0 0.00 0.00 0.00 1015.8
20260507103009 0 0.0 0.0 0.00 0.00 0.00 1015.7
20260507101548 0 0.0 0.0 0.00 0.00 0.00 1015.6
20260507100133 0 0.0 0.0 0.00 0.00 0.00 1015.3
20260507094530 0 0.0 0.0 0.00 0.00 0.00 1015.0
20260507093056 0 0.0 0.0 0.00 0.00 0.00 1014.9
20260507091546 0 245 0.0 0.0 0.00 0.00 0.00 1015.0
20260507090045 71 240 0.0 0.0 0.00 0.00 0.00 84 1015.0
20260507084547 71 240 0.0 0.0 0.00 0.00 0.00 84 1014.9
20260507083044 71 240 0.0 0.0 0.00 0.00 0.00 84 1014.8
20260507081537 71 241 0.0 0.0 0.00 0.00 0.00 84 1014.7
20260507080038 71 241 0.0 0.0 0.00 0.00 0.00 83 1014.6
20260507074545 72 244 0.0 0.0 0.00 0.00 0.00 83 1014.7
20260507073042 72 267 0.0 0.0 0.00 0.00 0.00 83 1014.9
20260507071538 72 214 0.0 0.0 0.00 0.00 0.00 83 1014.9
20260507070043 72 224 0.0 0.0 0.00 0.00 0.00 82 1015.2
20260507064537 73 224 0.0 0.0 0.00 0.00 0.00 82 1015.4
20260507063052 73 224 0.0 0.0 0.00 0.00 0.00 81 1015.5
20260507061541 73 254 0.0 0.0 0.00 0.00 0.00 81 1015.7
20260507060042 74 254 0.0 0.0 0.00 0.00 0.00 81 1015.9
20260507054514 74 221 0.0 0.0 0.00 0.00 0.00 80 1015.8
20260507053022 76 219 0.0 0.0 0.00 0.00 0.00 78 1015.8
20260507051510 77 177 0.0 0.0 0.00 0.00 0.00 78 1016.1
20260507050006 77 164 0.9 7.8 0.00 0.00 0.00 77 1016.2
20260507044505 77 155 0.0 0.0 0.00 0.00 0.00 77 1016.1
20260507043004 77 110 0.0 5.2 0.00 0.00 0.00 77 1015.8
20260507041504 77 172 0.0 0.9 0.00 0.00 0.00 76 1015.7
20260507040113 77 155 0.0 0.0 0.00 0.00 0.00 76 1015.9
20260507034618 77 114 0.0 4.3 0.00 0.00 0.00 77 1016.1
20260507033003 77 153 0.0 0.0 0.00 0.00 0.00 77 1016.1
20260507031518 77 229 0.0 6.1 0.00 0.00 0.00 77 1016.2
20260507030010 77 130 0.0 2.6 0.00 0.00 0.00 77 1016.0
20260507024524 77 206 0.0 1.7 0.00 0.00 0.00 76 1016.1
20260507023016 77 177 0.0 3.5 0.00 0.00 0.00 76 1016.1
20260507021520 78 117 0.0 7.0 0.00 0.00 0.00 76 1016.1
20260507020025 78 193 0.9 9.6 0.00 0.00 0.00 75 1016.1
20260507014520 78 134 0.0 0.0 0.00 0.00 0.00 74 1016.2
20260507013045 78 174 0.0 3.5 0.00 0.00 0.00 74 1016.3
20260507011522 78 158 0.0 2.6 0.00 0.00 0.00 73 1016.1
20260507010035 78 144 0.0 4.3 0.00 0.00 0.00 73 1016.0
20260507004534 78 216 0.0 4.3 0.00 0.00 0.00 72 1015.9
20260507003037 78 143 0.0 0.9 0.00 0.00 0.00 72 1015.6
20260507001539 78 103 0.0 0.0 0.00 0.00 0.00 72 1015.7
20260507000046 79 134 0.0 1.7 0.00 0.00 0.00 68 1015.5
20260506234548 79 107 0.0 7.0 0.00 0.00 0.00 67 1015.5
20260506233103 80 87 0.0 7.0 0.00 0.00 0.00 65 1015.7
20260506231551 81 121 0.0 0.0 0.00 0.00 0.00 62 1015.7
20260506230056 81 86 0.0 0.9 0.00 0.00 0.00 61 1015.7
20260506224559 82 126 0.0 5.2 0.00 0.00 0.00 60 1015.7
20260506223058 82 79 0.0 5.2 0.00 0.00 0.00 58 1015.8
20260506221604 82 115 0.0 7.8 0.00 0.00 0.00 61 1015.8
20260506220106 83 119 0.0 0.0 0.00 0.00 0.00 66 1016.0
20260506214508 82 145 0.0 7.8 0.00 0.00 0.00 66 1015.9
20260506213104 82 214 0.0 1.7 0.00 0.00 0.00 67 1015.9
20260506211504 83 191 0.0 0.9 0.00 0.00 0.00 66 1016.0
20260506210011 83 120 0.0 4.3 0.00 0.00 0.00 67 1016.1
20260506204503 82 63 0.0 7.0 0.00 0.00 0.00 68 1016.1
20260506203106 83 120 0.0 0.0 0.00 0.00 0.00 68 1016.0
20260506201605 83 120 0.0 0.9 0.00 0.00 0.00 68 1016.1
20260506200010 83 65 0.0 3.5 0.00 0.00 0.00 69 1016.1
20260506194512 84 105 0.0 0.9 0.00 0.00 0.00 69 1016.1
20260506193027 84 90 0.0 0.0 0.00 0.00 0.00 70 1016.3
20260506191527 84 137 0.0 1.7 0.00 0.00 0.00 68 1016.5
20260506190027 84 91 0.0 0.0 0.00 0.00 0.00 70 1016.6
20260506184510 83 119 0.0 3.5 0.00 0.00 0.00 71 1016.8
20260506183025 83 121 0.0 4.3 0.00 0.00 0.00 72 1016.8
20260506181528 83 101 0.0 7.8 0.00 0.00 0.00 71 1017.0
20260506180039 83 152 0.9 7.0 0.00 0.00 0.00 72 1017.1
20260506174534 83 96 0.0 0.0 0.00 0.00 0.00 72 1017.2
20260506173044 83 76 0.0 2.6 0.00 0.00 0.00 74 1017.3
20260506171548 83 188 0.0 0.0 0.00 0.00 0.00 72 1017.4
20260506170040 82 124 0.0 0.0 0.00 0.00 0.00 75 1017.5
20260506164603 82 134 0.0 0.9 0.00 0.00 0.00 74 1017.5
20260506163046 82 116 0.0 3.5 0.00 0.00 0.00 75 1017.5
20260506161551 82 131 0.0 3.5 0.00 0.00 0.00 73 1017.5
20260506160106 82 138 0.0 0.0 0.00 0.00 0.00 73 1017.7
20260506154554 83 122 0.0 0.0 0.00 0.00 0.00 72 1017.8
20260506153048 83 227 0.0 0.0 0.00 0.00 0.00 72 1017.7
20260506151548 82 155 0.0 0.0 0.00 0.00 0.00 74 1017.7
20260506150042 81 133 0.0 5.2 0.00 0.00 0.00 75 1017.6
20260506144538 81 158 0.0 1.7 0.00 0.00 0.00 76 1017.5
20260506143037 80 152 0.0 6.1 0.00 0.00 0.00 76 1017.5
20260506141552 79 116 0.0 5.2 0.00 0.00 0.00 76 1017.5